DW6005 Weather Reports


time (UTC)temp
C
wind
direction
speed
KPH
gust
KPH
rain 1hr
cm
rain 24hr
cm
rain mn
cm
humidity
%
barometer
mb
20260507013029 16 98 0.0 1.6 0.00 0.00 0.00 82 1010.8
20260507011540 16 98 0.0 3.2 0.00 0.00 0.00 82 1010.8
20260507010034 16 98 0.0 3.2 0.00 0.00 0.00 82 1010.8
20260507004525 16 98 0.0 0.0 0.00 0.00 0.00 82 1010.8
20260507003024 16 98 0.0 4.8 0.00 0.00 0.00 82 1010.8
20260507001548 16 98 0.0 3.2 0.00 0.00 0.00 82 1011.0
20260507000024 16 98 0.0 4.8 0.00 0.00 0.00 82 1011.1
20260506234519 16 98 0.0 4.8 0.00 0.00 0.00 82 1011.2
20260506233019 16 99 0.0 3.2 0.00 0.00 0.00 82 1011.4
20260506231518 16 99 0.0 3.2 0.00 0.00 0.00 82 1011.3
20260506230016 16 99 0.0 3.2 0.00 0.00 0.00 82 1011.4
20260506224516 16 99 0.0 3.2 0.00 0.00 0.00 82 1011.4
20260506223014 16 99 0.0 4.8 0.00 0.00 0.00 83 1011.4
20260506221515 16 99 0.0 3.2 0.00 0.00 0.00 83 1011.4
20260506220011 16 96 1.6 6.4 0.00 0.00 0.00 83 1011.4
20260506214510 16 96 1.6 6.4 0.00 0.00 0.00 83 1011.7
20260506213010 17 116 3.2 11.3 0.00 0.00 0.00 83 1011.8
20260506211509 17 117 1.6 11.3 0.00 0.00 0.00 83 1011.7
20260506210009 17 108 4.8 12.9 0.00 0.00 0.00 82 1011.6
20260506204506 17 111 6.4 12.9 0.00 0.00 0.00 82 1011.6
20260506203009 17 136 6.4 14.5 0.00 0.00 0.00 82 1011.5
20260506201504 17 98 4.8 11.3 0.00 0.00 0.00 81 1011.4
20260506200001 17 130 6.4 12.9 0.00 0.00 0.00 80 1010.9
20260506194503 17 109 4.8 14.5 0.00 0.00 0.00 78 1010.8
20260506193107 17 101 6.4 14.5 0.00 0.00 0.00 77 1010.7
20260506191600 18 108 8.0 17.7 0.00 0.00 0.00 76 1010.5
20260506184558 18 120 8.0 20.9 0.00 0.00 0.00 74 1010.3
20260506183106 18 84 8.0 16.1 0.00 0.00 0.00 73 1010.2
20260506181603 18 109 12.9 20.9 0.00 0.00 0.00 72 1010.0
20260506180056 18 119 8.0 24.1 0.00 0.00 0.00 72 1009.9
20260506174557 18 92 12.9 22.5 0.00 0.00 0.00 71 1009.9
20260506173104 19 105 14.5 25.7 0.00 0.00 0.00 69 1009.8
20260506171555 19 132 14.5 25.7 0.00 0.00 0.00 68 1009.7
20260506170104 19 124 12.9 22.5 0.00 0.00 0.00 68 1009.6
20260506164606 19 119 12.9 22.5 0.00 0.00 0.00 66 1009.7
20260506163059 20 93 12.9 24.1 0.00 0.00 0.00 68 1009.7
20260506161553 20 119 11.3 22.5 0.00 0.00 0.00 68 1009.6
20260506160056 20 104 8.0 22.5 0.00 0.00 0.00 69 1009.4
20260506154553 20 101 12.9 27.4 0.00 0.00 0.00 69 1009.4
20260506153048 20 85 16.1 30.6 0.00 0.00 0.00 68 1009.4
20260506151547 21 96 11.3 25.7 0.00 0.00 0.00 67 1009.4
20260506150059 20 119 14.5 29.0 0.00 0.00 0.00 67 1009.4
20260506144545 21 130 17.7 27.4 0.00 0.00 0.00 67 1009.6
20260506143045 20 125 14.5 29.0 0.00 0.00 0.00 68 1009.4
20260506141545 21 106 16.1 27.4 0.00 0.00 0.00 66 1009.6
20260506140042 21 125 17.7 30.6 0.00 0.00 0.00 66 1009.6
20260506134540 21 113 17.7 30.6 0.00 0.00 0.00 65 1009.7
20260506133050 21 132 16.1 27.4 0.00 0.00 0.00 63 1009.6
20260506131539 22 120 14.5 25.7 0.00 0.00 0.00 62 1009.7
20260506130039 22 105 12.9 24.1 0.00 0.00 0.00 62 1009.8
20260506124537 22 110 12.9 29.0 0.00 0.00 0.00 61 1010.0
20260506123036 22 115 16.1 29.0 0.00 0.00 0.00 61 1010.1
20260506121535 22 126 12.9 24.1 0.00 0.00 0.00 58 1010.1
20260506120050 22 117 16.1 27.4 0.00 0.00 0.00 57 1010.3
20260506114534 22 114 9.7 22.5 0.00 0.00 0.00 55 1010.3
20260506113029 22 125 11.3 25.7 0.00 0.00 0.00 57 1010.5
20260506111528 22 109 12.9 25.7 0.00 0.00 0.00 55 1010.5
20260506110029 21 153 8.0 17.7 0.00 0.00 0.00 57 1010.6
20260506104536 21 82 4.8 20.9 0.00 0.00 0.00 58 1010.7
20260506103037 21 130 9.7 19.3 0.00 0.00 0.00 59 1010.9
20260506101520 21 96 11.3 17.7 0.00 0.00 0.00 61 1011.0
20260506100019 21 104 9.7 19.3 0.00 0.00 0.00 62 1011.1
20260506094515 20 94 3.2 14.5 0.00 0.00 0.00 65 1011.2
20260506093019 20 129 3.2 16.1 0.00 0.00 0.00 65 1011.1
20260506091510 19 119 3.2 17.7 0.00 0.00 0.00 67 1011.0
20260506090008 18 131 6.4 12.9 0.00 0.00 0.00 69 1011.0
20260506084509 19 115 8.0 16.1 0.00 0.00 0.00 68 1010.9
20260506083005 19 161 1.6 11.3 0.00 0.00 0.00 69 1011.0
20260506081503 19 246 0.0 6.4 0.00 0.00 0.00 67 1011.0
20260506080105 18 238 0.0 3.2 0.00 0.00 0.00 63 1011.0
20260506073056 18 52 0.0 4.8 0.00 0.00 0.00 61 1011.1
20260506071558 17 51 0.0 1.6 0.00 0.00 0.00 61 1010.9
20260506061547 15 49 0.0 4.8 0.00 0.00 0.00 65 1010.9
20260506050134 15 281 1.6 6.4 0.00 0.00 0.00 58 1010.0
20260506044537 14 266 1.6 3.2 0.00 0.00 0.00 62 1009.8
20260506043031 14 266 0.0 3.2 0.00 0.00 0.00 65 1009.8
20260506041530 14 266 0.0 3.2 0.00 0.00 0.00 65 1009.7
20260506040034 15 266 1.6 4.8 0.00 0.00 0.00 65 1009.7
20260506034526 14 323 3.2 6.4 0.00 0.00 0.00 67 1009.8
20260506033025 15 324 0.0 4.8 0.00 0.00 0.00 67 1009.9
20260506031522 15 324 1.6 6.4 0.00 0.00 0.00 66 1009.8
20260506030020 15 285 0.0 4.8 0.00 0.00 0.00 65 1009.9
20260506024518 15 255 1.6 6.4 0.00 0.00 0.00 64 1009.8
20260506023031 15 273 1.6 4.8 0.00 0.00 0.00 65 1009.8
20260506021531 16 271 0.0 6.4 0.00 0.00 0.00 63 1009.8
20260506020016 16 261 1.6 9.7 0.00 0.00 0.00 65 1009.9
20260506014518 16 329 1.6 6.4 0.00 0.00 0.00 67 1009.9